KC3SRB Weather Reports


time (UTC)temp
C
wind
direction
speed
KPH
gust
KPH
rain 1hr
cm
rain 24hr
cm
rain mn
cm
humidity
%
barometer
mb
20260504231551 21 278 6.4 19.3 0.00 0.00 0.00 39 1008.1
20260504230057 21 273 4.8 19.3 0.00 0.00 0.00 39 1007.9
20260504224554 21 279 3.2 27.4 0.00 0.00 0.00 40 1008.0
20260504223048 21 250 8.0 20.9 0.00 0.00 0.00 39 1008.2
20260504221551 22 271 6.4 20.9 0.00 0.00 0.00 39 1008.1
20260504220111 22 352 6.4 27.4 0.00 0.00 0.00 38 1008.4
20260504214555 22 277 8.0 20.9 0.00 0.00 0.00 38 1008.3
20260504213059 22 329 8.0 19.3 0.00 0.00 0.00 37 1008.3
20260504211555 22 11 4.8 16.1 0.00 0.00 0.00 38 1008.3
20260504210052 22 267 4.8 20.9 0.00 0.00 0.00 38 1008.2
20260504204552 22 272 6.4 17.7 0.00 0.00 0.00 38 1008.2
20260504203055 22 283 4.8 20.9 0.00 0.00 0.00 37 1008.3
20260504201551 22 318 3.2 14.5 0.00 0.00 0.00 37 1008.6
20260504200057 22 297 4.8 14.5 0.00 0.00 0.00 36 1008.8
20260504194552 22 266 6.4 17.7 0.00 0.00 0.00 38 1009.0
20260504193054 22 274 3.2 17.7 0.00 0.00 0.00 38 1009.3
20260504191600 22 117 4.8 12.9 0.00 0.00 0.00 38 1009.4
20260504190110 21 223 6.4 19.3 0.00 0.00 0.00 38 1009.8
20260504184611 21 287 4.8 14.5 0.00 0.00 0.00 42 1010.0
20260504183054 21 254 4.8 22.5 0.00 0.00 0.00 38 1010.2
20260504181555 21 263 4.8 16.1 0.00 0.00 0.00 40 1010.3
20260504174550 20 122 4.8 12.9 0.00 0.00 0.00 38 1010.8
20260504173052 20 266 6.4 20.9 0.00 0.00 0.00 39 1010.9
20260504171549 20 117 4.8 16.1 0.00 0.00 0.00 37 1011.0
20260504081555 7 346 0.0 3.2 0.00 0.00 0.00 59 1014.0
20260504044603 8 0 0.0 1.6 0.00 0.00 0.00 60 1014.1
20260504043055 8 0 0.0 0.0 0.00 0.00 0.00 57 1014.1
20260504041554 8 0 0.0 3.2 0.00 0.00 0.00 58 1014.0
20260504040104 9 0 0.0 1.6 0.00 0.00 0.00 53 1014.1
20260504034559 9 0 0.0 3.2 0.00 0.00 0.00 52 1013.9
20260504033126 9 0 0.0 4.8 0.00 0.00 0.00 52 1013.8
20260504031557 10 0 0.0 1.6 0.00 0.00 0.00 50 1013.8
20260504030052 10 0 0.0 0.0 0.00 0.00 0.00 51 1013.6
20260504024556 10 0 0.0 3.2 0.00 0.00 0.00 46 1013.6
20260504023104 10 0 0.0 0.0 0.00 0.00 0.00 48 1013.6
20260504021554 11 0 0.0 3.2 0.00 0.00 0.00 46 1013.6
20260504020057 11 0 0.0 8.0 0.00 0.00 0.00 43 1013.7
20260504014551 11 323 3.2 6.4 0.00 0.00 0.00 42 1013.6
20260504013106 11 350 1.6 4.8 0.00 0.00 0.00 43 1013.6
20260504011556 11 352 1.6 4.8 0.00 0.00 0.00 43 1013.6
20260504010110 11 9 1.6 3.2 0.00 0.00 0.00 43 1013.5
20260504004624 11 352 1.6 4.8 0.00 0.00 0.00 45 1013.4
20260504003054 11 5 1.6 3.2 0.00 0.00 0.00 43 1013.3
20260504001607 11 352 1.6 3.2 0.00 0.00 0.00 44 1013.2
20260504000050 12 346 1.6 4.8 0.00 0.00 0.00 42 1013.0
20260503234554 13 328 0.0 6.4 0.00 0.00 0.00 38 1012.8
20260503233053 13 309 0.0 12.9 0.00 0.00 0.00 37 1012.7